When you browse on this site, cookies collect data to enhance your experience and personalize the content and advertising you see.
Visit our Privacy Policy to learn more. By continuing to use the site, you agree to this use of cookies and data.
  • In Austria
  • List of Countries
  • For 7 days
  • Water Temperature
  • Weather Map
  • News
  • Weather Widgets
  • user-avatar
    Login

    Hourly Weather Hrazdan

    Today, 27 May, Wednesday

    Time Temperature Precipitation Wind Pressure Humidity
    00:00 +10°C° 0 mm 2 mps 616 mmHg 82%
    01:00 +9°C° 0 mm 2 mps 616 mmHg 82%
    02:00 +10°C° 0 mm 1 mps 615 mmHg 82%
    03:00 +10°C° 0 mm 1 mps 615 mmHg 83%
    04:00 +10°C° 0 mm 1 mps 616 mmHg 82%
    05:00 +11°C° 0 mm 1 mps 616 mmHg 82%
    06:00 +12°C° 0 mm 1 mps 617 mmHg 81%
    07:00 +14°C° 0 mm 1 mps 618 mmHg 74%
    08:00 +16°C° 0 mm 2 mps 618 mmHg 68%
    09:00 +18°C° 0 mm 2 mps 619 mmHg 61%
    10:00 +18°C° 0 mm 2 mps 619 mmHg 59%
    11:00 +19°C° 0 mm 2 mps 619 mmHg 57%
    12:00 +20°C° 0 mm 2 mps 619 mmHg 55%
    13:00 +20°C° 0.1 mm 2 mps 619 mmHg 55%
    14:00 +20°C° 0.1 mm 2 mps 618 mmHg 56%
    15:00 +20°C° 0.1 mm 2 mps 618 mmHg 56%
    16:00 +19°C° 0.1 mm 2 mps 618 mmHg 62%
    17:00 +20°C° 0.1 mm 1 mps 617 mmHg 67%
    18:00 +19°C° 0.1 mm 1 mps 617 mmHg 73%
    19:00 +16°C° 0 mm 1 mps 616 mmHg 76%
    20:00 +15°C° 0 mm 1 mps 616 mmHg 78%
    21:00 +13°C° 0 mm 1 mps 615 mmHg 81%
    22:00 +13°C° 0 mm 1 mps 615 mmHg 77%
    23:00 +13°C° 0 mm 1 mps 615 mmHg 73%

    Tomorrow, 28 May, Thursday

    Time Temperature Precipitation Wind Pressure Humidity
    00:00 +12°C° 0 mm 1 mps 615 mmHg 69%
    01:00 +12°C° 0 mm 1 mps 615 mmHg 68%
    02:00 +12°C° 0 mm 1 mps 615 mmHg 67%
    03:00 +12°C° 0 mm 1 mps 615 mmHg 66%
    04:00 +13°C° 0 mm 1 mps 615 mmHg 66%
    05:00 +13°C° 0 mm 1 mps 615 mmHg 66%
    06:00 +14°C° 0 mm 1 mps 616 mmHg 66%
    07:00 +16°C° 0 mm 1 mps 616 mmHg 60%
    08:00 +20°C° 0 mm 1 mps 617 mmHg 54%
    09:00 +22°C° 0 mm 1 mps 617 mmHg 49%
    10:00 +22°C° 0 mm 1 mps 617 mmHg 47%
    11:00 +23°C° 0 mm 2 mps 617 mmHg 45%
    12:00 +24°C° 0 mm 2 mps 617 mmHg 43%
    13:00 +24°C° 0.1 mm 2 mps 617 mmHg 43%
    14:00 +24°C° 0.1 mm 2 mps 616 mmHg 42%
    15:00 +24°C° 0.1 mm 2 mps 616 mmHg 42%
    16:00 +23°C° 0.1 mm 2 mps 616 mmHg 47%
    17:00 +23°C° 0.1 mm 1 mps 616 mmHg 53%
    18:00 +22°C° 0.1 mm 1 mps 615 mmHg 58%
    19:00 +20°C° 0 mm 1 mps 615 mmHg 61%
    20:00 +18°C° 0 mm 1 mps 614 mmHg 65%
    21:00 +15°C° 0 mm 2 mps 614 mmHg 68%
    22:00 +15°C° 0 mm 2 mps 614 mmHg 67%
    23:00 +14°C° 0 mm 1 mps 614 mmHg 66%

    Day after tomorrow, 29 May, Friday

    Time Temperature Precipitation Wind Pressure Humidity
    00:00 +14°C° 0 mm 1 mps 614 mmHg 66%
    01:00 +14°C° 0.1 mm 1 mps 613 mmHg 66%
    02:00 +13°C° 0.1 mm 1 mps 613 mmHg 67%
    03:00 +13°C° 0.1 mm 1 mps 612 mmHg 67%
    04:00 +14°C° 0.1 mm 1 mps 612 mmHg 67%
    05:00 +14°C° 0.1 mm 1 mps 612 mmHg 67%
    06:00 +15°C° 0.1 mm 2 mps 613 mmHg 67%
    07:00 +17°C° 0 mm 2 mps 613 mmHg 61%
    08:00 +19°C° 0 mm 2 mps 613 mmHg 55%
    09:00 +21°C° 0 mm 2 mps 614 mmHg 49%
    10:00 +22°C° 0.1 mm 3 mps 614 mmHg 47%
    11:00 +23°C° 0.1 mm 4 mps 614 mmHg 45%
    12:00 +25°C° 0.1 mm 5 mps 613 mmHg 43%
    13:00 +25°C° 0.2 mm 5 mps 613 mmHg 44%
    14:00 +25°C° 0.2 mm 5 mps 612 mmHg 45%
    15:00 +25°C° 0.2 mm 4 mps 612 mmHg 46%
    16:00 +22°C° 0.1 mm 4 mps 612 mmHg 50%
    17:00 +21°C° 0.1 mm 4 mps 611 mmHg 54%
    18:00 +20°C° 0.1 mm 4 mps 611 mmHg 57%
    19:00 +18°C° 0.1 mm 3 mps 611 mmHg 56%
    20:00 +16°C° 0.1 mm 3 mps 610 mmHg 55%
    21:00 +14°C° 0.1 mm 2 mps 610 mmHg 54%
    22:00 +13°C° 0 mm 2 mps 610 mmHg 53%
    23:00 +13°C° 0 mm 2 mps 610 mmHg 51%

    30 May, Saturday

    Time Temperature Precipitation Wind Pressure Humidity
    00:00 +12°C° 0 mm 2 mps 610 mmHg 50%
    01:00 +10°C° 0 mm 2 mps 610 mmHg 52%
    02:00 +10°C° 0 mm 2 mps 610 mmHg 54%
    03:00 +9°C° 0 mm 2 mps 609 mmHg 56%
    04:00 +9°C° 0 mm 2 mps 610 mmHg 57%
    05:00 +10°C° 0 mm 2 mps 610 mmHg 57%
    06:00 +10°C° 0 mm 2 mps 611 mmHg 57%
    07:00 +13°C° 0 mm 2 mps 611 mmHg 50%
    08:00 +14°C° 0 mm 2 mps 612 mmHg 44%
    09:00 +16°C° 0 mm 2 mps 613 mmHg 37%
    10:00 +17°C° 0 mm 3 mps 613 mmHg 36%
    11:00 +18°C° 0 mm 3 mps 613 mmHg 34%
    12:00 +19°C° 0 mm 3 mps 613 mmHg 33%
    13:00 +19°C° 0 mm 3 mps 613 mmHg 34%
    14:00 +19°C° 0 mm 3 mps 613 mmHg 34%
    15:00 +19°C° 0 mm 3 mps 613 mmHg 35%
    16:00 +19°C° 0 mm 2 mps 613 mmHg 41%
    17:00 +18°C° 0 mm 2 mps 613 mmHg 47%
    18:00 +18°C° 0 mm 1 mps 613 mmHg 54%
    19:00 +15°C° 0 mm 1 mps 612 mmHg 55%
    20:00 +13°C° 0 mm 1 mps 612 mmHg 57%
    21:00 +11°C° 0 mm 1 mps 612 mmHg 59%
    22:00 +11°C° 0 mm 1 mps 612 mmHg 61%
    23:00 +10°C° 0 mm 1 mps 612 mmHg 63%

    31 May, Sunday

    Time Temperature Precipitation Wind Pressure Humidity
    00:00 +10°C° 0 mm 1 mps 612 mmHg 65%
    01:00 +10°C° 0 mm 1 mps 612 mmHg 64%
    02:00 +9°C° 0 mm 1 mps 612 mmHg 62%
    03:00 +9°C° 0 mm 1 mps 612 mmHg 60%
    04:00 +10°C° 0 mm 1 mps 613 mmHg 61%
    05:00 +11°C° 0 mm 1 mps 613 mmHg 62%
    06:00 +11°C° 0 mm 1 mps 614 mmHg 63%
    07:00 +13°C° 0 mm 1 mps 614 mmHg 56%
    08:00 +15°C° 0 mm 1 mps 615 mmHg 50%
    09:00 +18°C° 0 mm 1 mps 616 mmHg 43%
    10:00 +19°C° 0 mm 1 mps 616 mmHg 41%
    11:00 +18°C° 0 mm 2 mps 616 mmHg 39%
    12:00 +19°C° 0 mm 2 mps 616 mmHg 37%
    13:00 +19°C° 0 mm 2 mps 616 mmHg 37%
    14:00 +20°C° 0 mm 2 mps 615 mmHg 37%
    15:00 +20°C° 0 mm 2 mps 615 mmHg 36%
    16:00 +19°C° 0 mm 2 mps 615 mmHg 44%
    17:00 +19°C° 0 mm 1 mps 614 mmHg 52%
    18:00 +18°C° 0 mm 1 mps 614 mmHg 60%
    19:00 +15°C° 0 mm 1 mps 614 mmHg 67%
    20:00 +13°C° 0 mm 1 mps 613 mmHg 74%
    21:00 +10°C° 0 mm 2 mps 613 mmHg 81%
    22:00 +10°C° 0 mm 2 mps 613 mmHg 80%
    23:00 +10°C° 0 mm 2 mps 613 mmHg 78%

    1 June, Monday

    Time Temperature Precipitation Wind Pressure Humidity
    00:00 +9°C° 0 mm 2 mps 613 mmHg 76%
    01:00 +9°C° 0 mm 2 mps 613 mmHg 76%
    02:00 +9°C° 0 mm 2 mps 612 mmHg 77%
    03:00 +9°C° 0 mm 2 mps 612 mmHg 77%
    04:00 +10°C° 0 mm 2 mps 613 mmHg 77%
    05:00 +10°C° 0 mm 2 mps 613 mmHg 77%
    06:00 +12°C° 0 mm 2 mps 613 mmHg 77%
    07:00 +14°C° 0 mm 2 mps 614 mmHg 70%
    08:00 +16°C° 0 mm 1 mps 615 mmHg 63%
    09:00 +19°C° 0 mm 1 mps 615 mmHg 56%
    10:00 +19°C° 0 mm 2 mps 615 mmHg 53%
    11:00 +20°C° 0 mm 3 mps 615 mmHg 49%
    12:00 +21°C° 0 mm 4 mps 616 mmHg 46%
    13:00 +21°C° 0.1 mm 4 mps 615 mmHg 46%
    14:00 +21°C° 0.1 mm 4 mps 615 mmHg 45%
    15:00 +21°C° 0.1 mm 4 mps 615 mmHg 44%
    16:00 +21°C° 0.1 mm 4 mps 614 mmHg 49%
    17:00 +20°C° 0.1 mm 3 mps 614 mmHg 54%
    18:00 +19°C° 0.1 mm 2 mps 613 mmHg 59%
    19:00 +17°C° 0 mm 2 mps 613 mmHg 57%
    20:00 +16°C° 0 mm 2 mps 613 mmHg 54%
    21:00 +14°C° 0 mm 2 mps 612 mmHg 51%
    22:00 +13°C° 0 mm 2 mps 612 mmHg 51%
    23:00 +13°C° 0 mm 2 mps 612 mmHg 51%
    Show more